FW9036 Weather Reports


Display with metric or nautical units.
time (UTC)temp
F
wind
direction
speed
MPH
gust
MPH
rain 1hr
in
rain 24hr
in
rain mn
in
humidity
%
barometer
mb
20220810070941 78 74 0.0 0.0 0.00 0.00 0.00 95 1021.1
20220810070440 78 74 0.0 0.0 0.00 0.00 0.00 95 1021.2
20220810065940 78 74 0.0 0.0 0.00 0.00 0.00 95 1021.3
20220810065439 78 74 0.0 0.0 0.00 0.00 0.00 95 1021.3
20220810064938 78 74 0.0 0.0 0.00 0.00 0.00 95 1021.1
20220810064437 78 90 0.0 0.0 0.00 0.00 0.00 95 1021.2
20220810063936 78 90 0.0 0.0 0.00 0.00 0.00 95 1021.3
20220810063435 78 90 0.0 0.0 0.00 0.00 0.00 94 1021.2
20220810062934 78 90 0.0 0.0 0.00 0.00 0.00 94 1021.4
20220810062434 78 90 0.0 0.0 0.00 0.00 0.00 94 1021.3
20220810061932 78 83 1.0 1.0 0.00 0.00 0.00 94 1021.5
20220810061432 78 74 0.0 0.0 0.00 0.00 0.00 94 1021.5
20220810060931 78 74 0.0 0.0 0.00 0.00 0.00 94 1021.5
20220810060430 78 106 0.0 0.0 0.00 0.00 0.00 94 1021.9
20220810055929 79 106 0.0 0.0 0.00 0.00 0.00 94 1021.8
20220810055428 79 106 0.0 0.0 0.00 0.00 0.00 94 1022.0
20220810054928 78 106 0.0 0.0 0.00 0.00 0.00 93 1021.9
20220810054427 79 106 0.0 0.0 0.00 0.00 0.00 93 1021.8
20220810053926 79 106 0.0 0.0 0.00 0.00 0.00 93 1022.0
20220810053425 79 106 0.0 0.0 0.00 0.00 0.00 92 1022.0
20220810052923 79 106 0.0 0.0 0.00 0.00 0.00 92 1022.0
20220810052422 79 106 0.0 0.0 0.00 0.00 0.00 92 1022.1
20220810051922 80 106 0.0 0.0 0.00 0.00 0.00 91 1021.8
20220810051421 80 120 0.0 1.0 0.00 0.00 0.00 91 1022.1
20220810050921 80 106 0.0 0.0 0.00 0.00 0.00 92 1022.1
20220810050421 79 106 0.0 1.0 0.00 0.00 0.00 92 1022.3
20220810045920 80 111 0.0 0.0 0.00 0.00 0.00 92 1022.2
20220810045419 80 111 0.0 1.0 0.00 0.00 0.00 92 1022.2
20220810044918 80 172 0.0 0.0 0.00 0.00 0.00 92 1022.1
20220810044418 80 172 0.0 0.0 0.00 0.00 0.00 92 1022.4
20220810043916 80 172 0.0 0.0 0.00 0.00 0.00 92 1022.4
20220810043415 80 172 0.0 0.0 0.00 0.00 0.00 91 1022.4
20220810042913 80 172 0.0 0.0 0.00 0.00 0.00 91 1022.1
20220810042412 80 74 0.0 2.0 0.00 0.00 0.00 91 1022.3
20220810041910 80 294 0.0 0.0 0.00 0.00 0.00 90 1022.2
20220810041409 80 294 0.0 0.0 0.00 0.00 0.00 90 1022.3
20220810040908 80 294 0.0 0.0 0.00 0.00 0.00 90 1022.0
20220810040407 80 294 0.0 1.0 0.00 0.00 0.00 91 1022.1
20220810035906 80 254 0.0 0.0 0.00 0.02 0.02 91 1022.2
20220810035406 80 254 0.0 0.0 0.00 0.02 0.02 91 1022.1
20220810034905 80 254 0.0 0.0 0.00 0.02 0.02 91 1021.9
20220810034404 80 180 0.0 0.0 0.00 0.02 0.02 91 1022.0
20220810033903 80 0 0.0 0.0 0.00 0.02 0.02 91 1021.9
20220810033402 80 0 0.0 0.0 0.00 0.02 0.02 91 1021.8
20220810032901 80 0 0.0 0.0 0.00 0.02 0.02 91 1021.7
20220810032400 80 0 0.0 0.0 0.00 0.02 0.02 91 1021.6
20220810031859 80 0 0.0 0.0 0.00 0.02 0.02 91 1021.4
20220810031358 81 114 0.0 0.0 0.00 0.02 0.02 90 1021.6
20220810030857 81 114 0.0 2.0 0.00 0.02 0.02 90 1021.3
20220810030356 81 105 0.0 3.0 0.00 0.02 0.02 90 1021.5
20220810025856 81 127 2.0 2.0 0.00 0.02 0.02 90 1021.5
20220810025354 81 105 1.0 2.0 0.00 0.02 0.02 90 1021.4
20220810024854 81 90 1.0 4.0 0.00 0.02 0.02 90 1021.2
20220810024353 81 145 1.0 2.0 0.00 0.02 0.02 90 1021.1
20220810023852 81 124 3.0 3.0 0.00 0.02 0.02 90 1021.1
20220810023351 81 120 1.0 2.0 0.00 0.02 0.02 89 1021.0
20220810022850 81 140 0.0 2.0 0.00 0.02 0.02 89 1021.2
20220810022349 81 114 2.0 2.0 0.00 0.02 0.02 89 1021.0
20220810021848 81 117 2.0 2.0 0.00 0.02 0.02 89 1021.0
20220810021347 82 109 0.0 2.0 0.00 0.02 0.02 89 1020.9
20220810020846 82 111 0.0 5.0 0.00 0.02 0.02 88 1020.8
20220810020346 82 117 1.0 3.0 0.00 0.02 0.02 88 1020.9
20220810015845 82 112 3.0 3.0 0.00 0.02 0.02 88 1020.8
20220810015344 82 120 0.0 2.0 0.00 0.02 0.02 88 1021.0
20220810014843 82 110 0.0 2.0 0.00 0.02 0.02 88 1020.9
20220810014343 82 114 0.0 0.0 0.00 0.02 0.02 88 1020.6
20220810013842 82 114 0.0 2.0 0.00 0.02 0.02 87 1020.6
20220810013341 82 99 0.0 0.0 0.00 0.02 0.02 88 1020.6
20220810012839 82 99 0.0 1.0 0.00 0.02 0.02 87 1020.1
20220810012337 82 90 0.0 1.0 0.00 0.02 0.02 87 1020.2
20220810011837 82 102 0.0 0.0 0.00 0.02 0.02 87 1020.0
20220810011336 82 102 0.0 2.0 0.00 0.02 0.02 86 1019.9
20220810010835 82 81 0.0 0.0 0.00 0.02 0.02 86 1020.1
20220810010334 82 90 0.0 0.0 0.00 0.02 0.02 86 1019.9
20220810005832 82 81 0.0 0.0 0.00 0.02 0.02 86 1020.0
20220810005331 83 74 0.0 1.0 0.00 0.02 0.02 85 1019.8
20220810004829 83 90 0.0 2.0 0.00 0.02 0.02 85 1019.5
20220810004329 83 90 0.0 1.0 0.00 0.02 0.02 84 1019.6
20220810003828 83 90 2.0 4.0 0.00 0.02 0.02 84 1019.4
20220810003327 83 90 0.0 1.0 0.00 0.02 0.02 84 1019.4
20220810002826 83 107 2.0 3.0 0.00 0.02 0.02 83 1019.4
20220810002326 83 106 0.0 2.0 0.00 0.02 0.02 83 1019.2
20220810001825 84 102 0.0 2.0 0.00 0.02 0.02 83 1019.3
20220810001324 84 112 2.0 3.0 0.00 0.02 0.02 82 1019.4
20220810000821 84 112 0.0 3.0 0.00 0.02 0.02 82 1019.3
20220810000320 84 131 2.0 4.0 0.00 0.02 0.02 81 1018.9
20220809235818 84 140 0.0 4.0 0.00 0.02 0.02 81 1019.3
20220809235317 84 90 1.0 3.0 0.00 0.02 0.02 80 1019.1
20220809234816 85 121 2.0 3.0 0.00 0.02 0.02 79 1019.1
20220809234316 85 117 3.0 3.0 0.00 0.02 0.02 79 1019.5
20220809233815 85 126 0.0 2.0 0.00 0.02 0.02 77 1019.3
20220809233313 85 124 2.0 3.0 0.00 0.02 0.02 77 1019.2
20220809232812 86 109 2.0 4.0 0.00 0.02 0.02 76 1019.1
20220809232312 86 141 3.0 5.0 0.00 0.02 0.02 75 1019.0
20220809231811 86 120 5.0 5.0 0.00 0.02 0.02 75 1019.0
20220809231310 87 114 1.0 4.0 0.00 0.02 0.02 73 1019.0
20220809230810 87 143 0.0 4.0 0.00 0.02 0.02 72 1018.9
20220809230309 88 90 0.0 5.0 0.00 0.02 0.02 71 1019.0
20220809225807 88 106 2.0 4.0 0.00 0.02 0.02 70 1018.9
20220809225307 89 162 2.0 2.0 0.00 0.02 0.02 69 1018.9
20220809224807 89 99 0.0 3.0 0.00 0.02 0.02 70 1018.9
20220809224305 88 101 3.0 8.0 0.00 0.02 0.02 70 1019.0
20220809223804 88 98 3.0 4.0 0.00 0.02 0.02 69 1018.7
20220809223304 89 157 2.0 3.0 0.00 0.02 0.02 69 1018.8
20220809222802 88 119 2.0 5.0 0.00 0.02 0.02 68 1019.1
20220809222301 89 84 2.0 5.0 0.00 0.02 0.02 67 1019.4
20220809221759 89 251 0.0 3.0 0.00 0.02 0.02 66 1019.1
20220809221259 89 127 2.0 5.0 0.00 0.02 0.02 68 1019.1
20220809220757 88 98 0.0 3.0 0.00 0.02 0.02 68 1019.1
20220809220256 88 100 4.0 11.0 0.00 0.02 0.02 67 1019.2
20220809215756 88 115 2.0 7.0 0.00 0.02 0.02 68 1019.1
20220809215255 88 120 4.0 6.0 0.00 0.02 0.02 70 1019.4
20220809214754 88 98 1.0 5.0 0.00 0.02 0.02 70 1019.1
20220809214253 88 112 5.0 7.0 0.00 0.02 0.02 69 1019.1
20220809213754 88 110 3.0 8.0 0.00 0.02 0.02 70 1019.2
20220809213253 87 120 4.0 6.0 0.00 0.02 0.02 70 1018.8
20220809212751 87 109 2.0 6.0 0.00 0.02 0.02 71 1018.9
20220809212250 87 134 4.0 5.0 0.00 0.02 0.02 70 1018.7
20220809211749 87 112 5.0 7.0 0.00 0.02 0.02 71 1019.1
20220809211249 87 121 5.0 5.0 0.00 0.02 0.02 71 1019.0
20220809210748 87 128 4.0 5.0 0.00 0.02 0.02 73 1019.0
20220809210247 87 85 2.0 3.0 0.00 0.02 0.02 76 1018.8
20220809205747 87 66 0.0 3.0 0.00 0.02 0.02 76 1019.1
20220809205245 87 57 2.0 3.0 0.00 0.02 0.02 77 1019.3
20220809204745 86 82 0.0 3.0 0.00 0.02 0.02 79 1019.2
20220809204245 86 80 2.0 2.0 0.00 0.02 0.02 80 1019.3
20220809203744 85 75 3.0 3.0 0.00 0.02 0.02 80 1019.3
20220809203245 85 99 0.0 3.0 0.00 0.02 0.02 81 1019.2
20220809202744 84 105 2.0 2.0 0.00 0.02 0.02 82 1019.7
20220809202242 84 82 0.0 3.0 0.00 0.02 0.02 84 1019.7
20220809201743 84 79 2.0 2.0 0.00 0.02 0.02 85 1019.8
20220809201241 84 110 2.0 3.0 0.00 0.02 0.02 85 1019.7
20220809200739 83 82 0.0 3.0 0.00 0.02 0.02 86 1019.4
20220809200239 83 75 1.0 2.0 0.00 0.02 0.02 87 1019.5
20220809195738 82 90 0.0 2.0 0.00 0.02 0.02 87 1019.4
20220809195238 82 74 0.0 1.0 0.00 0.02 0.02 88 1019.4
20220809194737 82 81 0.0 1.0 0.00 0.02 0.02 88 1019.6
20220809194236 81 90 0.0 1.0 0.00 0.02 0.02 89 1020.0
20220809193735 81 90 0.0 0.0 0.00 0.02 0.02 89 1020.3
20220809193233 81 90 0.0 1.0 0.00 0.02 0.02 90 1020.3
20220809192732 80 54 0.0 1.0 0.00 0.02 0.02 91 1020.4
20220809192231 80 105 0.0 0.0 0.00 0.02 0.02 91 1020.5
20220809191732 80 105 0.0 1.0 0.00 0.02 0.02 92 1020.4
20220809191231 79 98 1.0 1.0 0.00 0.02 0.02 92 1020.5
20220809190729 79 90 0.0 3.0 0.00 0.02 0.02 92 1020.4
20220809190229 79 90 0.0 2.0 0.02 0.02 0.02 91 1020.6
20220809185727 79 169 2.0 2.0 0.04 0.02 0.02 91 1020.9
20220809185226 79 112 3.0 5.0 0.04 0.01 0.01 90 1021.0
20220809184724 79 97 3.0 6.0 0.04 0.01 0.01 89 1020.8
20220809184223 80 106 0.0 4.0 0.04 0.00 0.00 88 1020.7
20220809183722 80 99 3.0 7.0 0.02 0.00 0.00 86 1020.7
20220809183221 81 116 4.0 7.0 0.00 0.00 0.00 83 1020.9
20220809182720 83 116 4.0 5.0 0.00 0.00 0.00 79 1021.0
20220809182220 83 129 2.0 6.0 0.00 0.00 0.00 80 1020.7
20220809181718 85 112 2.0 5.0 0.00 0.00 0.00 79 1021.1
20220809181218 86 131 2.0 5.0 0.00 0.00 0.00 76 1020.7
20220809180716 87 71 0.0 5.0 0.00 0.00 0.00 74 1020.6
20220809180215 88 98 1.0 4.0 0.00 0.00 0.00 71 1020.7
20220809175716 90 69 0.0 3.0 0.00 0.00 0.00 68 1020.4
20220809175215 89 94 5.0 6.0 0.00 0.00 0.00 69 1020.6
20220809174715 89 45 2.0 4.0 0.00 0.00 0.00 68 1020.8
20220809174215 88 77 0.0 2.0 0.00 0.00 0.00 70 1020.8
20220809173714 88 66 2.0 3.0 0.00 0.00 0.00 71 1021.0
20220809173213 88 64 4.0 5.0 0.00 0.00 0.00 70 1021.0
20220809172712 89 98 0.0 4.0 0.00 0.00 0.00 68 1021.2
20220809172211 89 148 0.0 3.0 0.00 0.00 0.00 68 1021.1
20220809171709 88 66 1.0 3.0 0.00 0.00 0.00 70 1021.2
20220809171208 88 90 0.0 1.0 0.00 0.00 0.00 70 1021.2
20220809170707 87 74 1.0 1.0 0.00 0.00 0.00 70 1021.5
20220809170206 87 75 1.0 3.0 0.00 0.00 0.00 69 1021.3
20220809165705 88 84 0.0 2.0 0.00 0.00 0.00 70 1021.4
20220809165203 88 35 0.0 2.0 0.00 0.00 0.00 68 1021.3
20220809164703 89 83 1.0 2.0 0.00 0.00 0.00 68 1021.3
20220809164203 89 90 0.0 3.0 0.00 0.00 0.00 67 1021.3
20220809163701 88 45 3.0 5.0 0.00 0.00 0.00 67 1021.4
20220809163201 89 80 2.0 4.0 0.00 0.00 0.00 66 1021.5
20220809162659 89 32 2.0 2.0 0.00 0.00 0.00 65 1021.7
20220809162158 89 21 3.0 4.0 0.00 0.00 0.00 66 1021.7
20220809161656 89 97 0.0 3.0 0.00 0.00 0.00 67 1021.8
20220809161155 89 90 0.0 4.0 0.00 0.00 0.00 68 1021.7
20220809160653 89 90 2.0 3.0 0.00 0.00 0.00 70 1021.7
20220809160153 88 350 3.0 5.0 0.00 0.00 0.00 69 1021.6
20220809155651 88 39 3.0 5.0 0.00 0.00 0.00 71 1021.7
20220809155151 88 53 6.0 6.0 0.00 0.00 0.00 72 1021.6
20220809154650 87 70 3.0 4.0 0.00 0.00 0.00 72 1021.8
20220809154149 86 126 0.0 3.0 0.00 0.00 0.00 74 1021.8
20220809153648 84 123 0.0 3.0 0.00 0.00 0.00 77 1021.7
20220809153148 84 145 0.0 3.0 0.00 0.00 0.00 79 1021.6
20220809152647 85 101 2.0 3.0 0.00 0.00 0.00 78 1021.9
20220809152146 86 140 2.0 3.0 0.00 0.00 0.00 75 1021.8
20220809151646 86 95 2.0 2.0 0.00 0.00 0.00 75 1021.8
20220809151146 86 106 0.0 3.0 0.00 0.00 0.00 75 1021.6
20220809150644 86 0 0.0 3.0 0.00 0.00 0.00 77 1021.8
20220809150143 85 81 0.0 3.0 0.00 0.00 0.00 78 1021.9
20220809145642 84 48 2.0 3.0 0.00 0.00 0.00 79 1021.8
20220809145141 85 90 1.0 2.0 0.00 0.00 0.00 78 1021.8
20220809144639 85 112 2.0 3.0 0.00 0.00 0.00 78 1021.7
20220809144139 84 87 3.0 4.0 0.00 0.00 0.00 78 1021.9
20220809143639 84 117 1.0 2.0 0.00 0.00 0.00 80 1021.6
20220809143139 84 95 2.0 3.0 0.00 0.00 0.00 80 1021.5
20220809142638 84 70 2.0 2.0 0.00 0.00 0.00 80 1021.3
20220809142136 84 54 1.0 3.0 0.00 0.00 0.00 80 1021.6
20220809141636 84 69 0.0 2.0 0.00 0.00 0.00 81 1021.5
20220809141136 84 66 1.0 3.0 0.00 0.00 0.00 81 1021.5
20220809140634 84 78 2.0 3.0 0.00 0.00 0.00 80 1021.6
20220809140134 84 51 3.0 3.0 0.00 0.00 0.00 81 1021.5
20220809135633 83 80 3.0 5.0 0.00 0.00 0.00 81 1021.4
20220809135131 83 195 0.0 4.0 0.00 0.00 0.00 84 1021.5
20220809134630 82 98 0.0 3.0 0.00 0.00 0.00 85 1021.5
20220809134129 82 90 0.0 1.0 0.00 0.00 0.00 86 1021.7
20220809133628 82 78 0.0 2.0 0.00 0.00 0.00 86 1021.3
20220809133126 82 81 0.0 2.0 0.00 0.00 0.00 86 1021.6
20220809132625 82 106 1.0 1.0 0.00 0.00 0.00 87 1021.6
20220809132125 81 23 1.0 2.0 0.00 0.00 0.00 87 1021.6
20220809131624 81 77 0.0 3.0 0.00 0.00 0.00 87 1021.5
20220809131123 81 180 0.0 1.0 0.00 0.00 0.00 88 1021.6
20220809130622 81 157 0.0 2.0 0.00 0.00 0.00 88 1021.7
20220809130120 81 151 0.0 2.0 0.00 0.00 0.00 87 1021.5
20220809125619 81 81 0.0 1.0 0.00 0.00 0.00 87 1021.7
20220809125119 80 106 0.0 0.0 0.00 0.00 0.00 89 1021.7
20220809124618 80 23 0.0 0.0 0.00 0.00 0.00 89 1021.5
20220809124117 79 23 0.0 1.0 0.00 0.00 0.00 89 1021.7
20220809123615 79 69 0.0 0.0 0.00 0.00 0.00 90 1021.5
20220809123114 78 77 0.0 0.0 0.00 0.00 0.00 90 1021.5
20220809122612 78 33 0.0 0.0 0.00 0.00 0.00 91 1021.3
20220809122112 77 0 0.0 0.0 0.00 0.00 0.00 92 1021.4
20220809121610 77 79 0.0 2.0 0.00 0.00 0.00 93 1021.2
20220809121109 77 60 0.0 1.0 0.00 0.00 0.00 93 1021.2
20220809120608 76 35 0.0 0.0 0.00 0.00 0.00 93 1021.3
20220809120108 76 0 0.0 0.0 0.00 0.00 0.00 94 1021.2
20220809115607 75 0 0.0 0.0 0.00 0.00 0.00 94 1021.3
20220809115107 75 0 0.0 0.0 0.00 0.00 0.00 94 1021.1
20220809114605 75 352 0.0 0.0 0.00 0.00 0.00 94 1021.2
20220809114105 75 353 0.0 0.0 0.00 0.00 0.00 94 1021.0
20220809113605 75 353 0.0 0.0 0.00 0.00 0.00 94 1021.0
20220809113104 75 315 0.0 0.0 0.00 0.00 0.00 94 1021.2
20220809112604 75 353 0.0 0.0 0.00 0.00 0.00 94 1021.1
20220809112103 75 353 0.0 0.0 0.00 0.00 0.00 94 1020.9
20220809111602 75 353 0.0 0.0 0.00 0.00 0.00 94 1021.0
20220809111102 75 353 0.0 1.0 0.00 0.00 0.00 94 1020.9
20220809110601 75 0 0.0 0.0 0.00 0.00 0.00 94 1020.9
20220809110100 75 328 0.0 0.0 0.00 0.00 0.00 94 1021.0
20220809105559 75 352 0.0 1.0 0.00 0.00 0.00 95 1020.8
20220809105058 75 294 0.0 2.0 0.00 0.00 0.00 95 1020.6
20220809104557 75 346 1.0 2.0 0.00 0.00 0.00 95 1020.5
20220809104057 75 324 0.0 2.0 0.00 0.00 0.00 96 1020.8
20220809103557 75 340 1.0 2.0 0.00 0.00 0.00 96 1020.7
20220809103056 75 325 0.0 2.0 0.00 0.00 0.00 96 1020.4
20220809102555 75 0 0.0 0.0 0.00 0.00 0.00 96 1020.7
20220809102054 75 0 0.0 0.0 0.00 0.00 0.00 97 1020.4
20220809101553 75 0 0.0 2.0 0.00 0.00 0.00 97 1020.6
20220809101051 75 18 2.0 2.0 0.00 0.00 0.00 97 1020.5
20220809100550 75 345 0.0 2.0 0.00 0.00 0.00 97 1020.4
20220809100049 75 0 0.0 0.0 0.00 0.00 0.00 97 1020.4
20220809095549 74 35 0.0 0.0 0.00 0.00 0.00 97 1020.2
20220809095048 75 35 0.0 0.0 0.00 0.00 0.00 97 1020.3
20220809094546 75 35 0.0 0.0 0.00 0.00 0.00 97 1020.0
20220809094046 75 0 0.0 0.0 0.00 0.00 0.00 97 1020.1
20220809093542 75 0 0.0 0.0 0.00 0.00 0.00 97 1019.9
20220809093041 75 0 0.0 1.0 0.00 0.00 0.00 97 1020.1
20220809092539 75 8 0.0 0.0 0.00 0.00 0.00 97 1020.2
20220809092039 75 8 0.0 0.0 0.00 0.00 0.00 97 1019.9
20220809091538 75 8 0.0 0.0 0.00 0.00 0.00 97 1020.2
20220809091037 75 8 0.0 0.0 0.00 0.00 0.00 97 1020.0
20220809090535 75 8 0.0 0.0 0.00 0.00 0.00 97 1020.1
20220809090035 75 8 0.0 0.0 0.00 0.00 0.00 97 1020.1
20220809085534 75 8 0.0 0.0 0.00 0.00 0.00 97 1020.2
20220809085034 75 8 0.0 0.0 0.00 0.00 0.00 97 1020.1
20220809084533 75 8 0.0 0.0 0.00 0.00 0.00 97 1020.2
20220809084032 75 8 0.0 0.0 0.00 0.00 0.00 97 1020.1
20220809083530 75 8 0.0 0.0 0.00 0.00 0.00 97 1020.0
20220809083030 75 8 0.0 0.0 0.00 0.00 0.00 97 1020.1
20220809082528 75 8 0.0 0.0 0.00 0.00 0.00 97 1020.1
20220809082028 75 8 0.0 0.0 0.00 0.00 0.00 97 1020.1
20220809081528 75 337 0.0 0.0 0.00 0.00 0.00 97 1019.9
20220809081027 75 337 0.0 0.0 0.00 0.00 0.00 97 1019.9
20220809080526 75 337 0.0 0.0 0.00 0.00 0.00 97 1019.9
20220809080026 75 337 0.0 0.0 0.00 0.00 0.00 97 1020.1
20220809075525 75 337 0.0 0.0 0.00 0.00 0.00 97 1020.0
20220809075025 75 147 0.0 0.0 0.00 0.00 0.00 97 1020.2
20220809074524 75 147 0.0 0.0 0.00 0.00 0.00 97 1020.1
20220809074023 75 147 0.0 0.0 0.00 0.00 0.00 96 1020.1
20220809073522 75 147 0.0 0.0 0.00 0.00 0.00 97 1020.1
20220809073021 75 147 0.0 0.0 0.00 0.00 0.00 96 1020.0
20220809072521 75 147 0.0 0.0 0.00 0.00 0.00 96 1020.2
20220809072020 76 147 0.0 0.0 0.00 0.00 0.00 96 1020.1
20220809071519 76 147 0.0 0.0 0.00 0.00 0.00 96 1020.2